Temperature
24 23 23 23 24 26 27 28 29 29 30 30 29 29 27 26 24 22 21 22 21 20 21 21 21 20 20 20 20 20 20 20 20 19 19 19 19 19 19 19 19 19 19 19 19 19 19 19 19
24 23 23 24 25 26 26 28 28 29 30 29 29 28 27 25 24 22 22 21 20 20 21 20 21 20 20 20 20 20 20 20 20 20 19 19 19 19 19 19 19 19 19 19 19 19 19 19 19
24 24 25 25 27 26 27 28 29 30 30 29 28 26 25 25 24 22 21 21 20 20 20 20 20 20 20 20 20 20 20 20 19 19 19 19 19 19 19 19 19 19 19 19 19 18 18 18 18
24 25 26 27 27 28 28 28 29 30 29 28 28 26 24 24 23 22 21 21 20 20 20 20 20 20 20 19 19 19 19 19 19 19 19 19 19 19 19 19 19 19 19 19 19 18 18 18 18
25 26 27 27 27 28 29 29 29 29 29 28 26 25 24 23 22 22 22 22 21 20 20 21 20 20 20 19 19 19 19 19 19 19 19 19 19 19 19 19 19 19 19 19 19 18 18 18 18
27 27 26 26 27 28 28 28 28 28 28 28 26 25 24 23 23 23 23 22 21 21 20 21 20 20 20 20 19 19 19 19 19 19 19 19 19 19 19 19 19 19 19 19 19 18 18 18 18
28 26 26 26 26 26 28 28 27 27 27 26 26 25 23 23 23 23 23 22 22 21 21 21 20 20 20 20 20 19 19 19 19 19 19 19 19 19 19 19 19 19 19 19 19 19 18 18 18
28 27 26 25 25 25 27 27 26 26 25 24 24 23 22 22 22 22 22 22 22 21 21 20 20 20 20 20 20 19 19 19 19 19 19 19 19 19 19 19 19 19 19 19 19 19 19 18 18
29 26 23 24 26 26 27 26 25 24 23 22 21 21 21 21 22 22 22 21 21 21 21 21 20 19 19 19 20 19 19 19 19 19 19 19 19 19 19 19 19 19 19 19 19 19 19 19 18
29 24 24 26 27 26 24 24 25 22 21 20 20 20 20 20 20 20 20 20 20 20 20 20 20 20 19 19 19 19 19 19 19 19 19 19 19 18 18 18 18 18 19 19 19 19 19 19 19
29 27 27 27 26 25 24 22 21 21 19 19 19 19 19 19 19 19 19 19 19 19 20 20 20 20 20 20 19 19 19 19 19 19 18 18 18 18 18 18 18 18 19 19 19 19 19 19 18
28 27 28 27 26 25 24 22 20 19 18 19 19 19 19 19 19 19 19 19 19 19 19 19 19 20 20 20 19 19 19 19 19 18 18 18 18 18 18 18 18 18 18 18 18 19 19 19 18
27 26 25 24 23 22 21 20 19 19 19 19 19 19 19 19 19 19 19 19 19 19 19 19 19 19 19 19 19 19 19 19 19 18 18 18 18 18 18 18 18 18 18 18 18 18 18 19 19
27 26 25 25 24 23 22 21 20 19 19 20 20 20 20 20 19 19 19 18 18 18 18 18 18 18 18 19 19 19 19 19 19 19 19 18 18 18 18 18 18 18 18 18 18 19 19 19 20
27 26 26 25 24 23 23 20 20 19 20 20 20 20 20 20 19 19 18 18 18 17 17 17 17 18 18 18 18 18 19 19 19 19 19 19 18 18 19 19 18 18 18 18 18 19 19 20 20
28 26 24 25 25 25 24 20 20 19 20 20 20 21 20 20 19 18 18 17 17 17 16 16 17 17 17 17 18 18 18 18 18 18 19 19 18 18 19 19 19 18 18 18 19 19 19 19 19
27 25 22 23 24 25 23 20 20 20 20 20 20 20 20 19 18 18 17 16 16 16 16 16 16 16 16 16 17 17 18 18 18 18 18 18 18 18 18 19 19 19 18 18 18 19 19 19 19
26 26 25 24 24 24 22 20 21 20 20 20 20 19 19 18 18 17 16 16 15 15 15 15 15 15 16 16 16 16 17 17 17 18 18 18 18 18 18 18 18 19 18 18 18 18 18 19 19
27 27 27 25 24 24 23 21 21 20 20 19 19 19 18 17 17 16 15 15 14 14 14 14 15 15 15 15 15 15 16 16 17 17 17 18 18 18 18 18 18 18 18 18 18 18 18 18 18
26 26 26 25 24 24 23 22 21 20 20 19 18 18 17 16 16 15 15 14 14 13 13 13 14 14 14 14 14 14 15 15 16 16 17 17 17 18 18 18 18 18 18 18 18 18 18 18 18
26 25 25 24 23 23 22 21 20 20 20 19 18 17 17 16 16 15 14 14 13 13 12 13 13 13 13 13 14 14 14 15 15 15 16 16 16 17 17 17 18 18 18 18 18 18 18 17 17
24 24 24 23 23 23 23 21 20 20 19 19 18 17 16 16 15 15 14 13 13 12 12 12 13 13 13 13 13 13 14 14 14 15 15 16 16 16 16 17 17 17 17 17 18 18 17 17 17
23 23 23 23 23 23 23 22 20 20 19 18 18 17 16 16 15 14 14 13 12 12 12 12 12 12 13 13 13 13 13 14 14 14 15 15 15 16 16 16 17 17 17 17 17 17 17 17 17
23 23 23 23 23 22 23 22 19 19 18 18 18 17 16 15 15 14 14 13 13 12 12 12 12 12 13 13 13 13 13 13 14 14 14 15 15 15 16 16 16 16 17 17 17 17 17 17 17
23 23 22 22 21 22 23 22 19 18 18 18 18 17 16 15 15 14 14 13 13 12 12 12 12 12 12 13 13 13 13 13 13 14 14 14 15 15 15 16 16 16 16 16 16 16 16 16 16
23 23 22 21 23 22 22 21 18 19 18 18 17 17 16 16 15 14 14 14 13 13 12 12 12 12 12 12 12 13 13 13 13 13 13 14 14 14 15 15 15 15 16 16 16 16 16 16 16
22 23 24 22 23 23 23 20 19 19 19 18 17 17 16 16 15 15 14 14 13 13 13 13 12 12 12 12 12 13 13 13 13 13 13 13 14 14 14 14 14 15 15 15 15 15 16 15 16
22 21 22 22 22 21 23 22 19 18 19 18 17 17 16 16 15 15 15 14 14 14 13 13 13 12 12 12 12 12 12 13 13 13 13 13 13 14 14 14 14 14 14 14 15 15 15 15 15
22 22 22 23 23 21 20 19 20 19 18 18 17 16 16 16 15 15 15 15 14 14 13 13 13 12 12 12 12 12 12 12 12 12 13 13 13 13 13 13 13 13 13 14 14 14 14 14 14
21 21 21 21 22 22 21 19 19 19 18 17 17 16 16 16 16 15 15 15 15 14 14 13 13 12 12 12 12 12 12 12 12 12 12 12 13 13 13 13 13 13 13 13 13 13 13 14 14
Wind_Speed
9 9 7 4 3 2 11 11 13 11 11 11 10 11 16 15 10 9 5 11 18 17 17 15 13 12 10 9 8 8 8 8 7 7 6 5 5 5 4 4 4 4 4 3 3 3 4 4 4
10 9 5 3 1 8 9 10 11 12 12 12 15 17 18 14 14 10 7 13 17 16 16 14 14 12 10 9 8 7 7 7 7 6 6 5 4 4 4 4 4 4 4 4 4 4 4 4 4
10 7 4 2 6 10 9 8 9 14 14 15 18 17 12 10 13 9 10 14 14 14 15 16 14 11 10 8 7 7 6 6 6 5 5 4 4 4 3 3 3 4 3 4 4 4 4 4 4
6 4 3 3 11 10 8 8 10 14 18 19 15 12 14 13 12 12 13 15 14 13 16 16 13 11 10 8 7 6 6 6 6 5 5 4 4 3 3 3 3 3 3 3 3 4 4 4 4
4 3 2 8 10 11 11 12 13 13 16 19 20 17 16 15 14 13 12 13 13 13 16 16 13 11 10 8 8 7 6 6 6 6 5 5 4 4 3 3 3 3 3 3 3 4 4 4 4
3 0 4 7 9 10 10 12 13 13 17 17 18 18 15 12 10 9 10 8 11 12 15 16 15 13 11 10 9 8 8 7 7 7 7 6 6 5 4 4 4 4 3 3 3 3 4 4 4
4 0 4 7 8 8 10 12 13 14 17 16 14 15 11 11 7 8 7 6 8 9 13 14 15 14 13 12 11 11 10 9 9 9 8 8 8 7 7 6 6 5 4 3 3 4 4 4 5
4 1 4 4 8 8 10 14 15 17 16 17 14 11 8 8 8 8 7 7 6 5 5 9 13 15 15 15 15 14 13 12 11 11 10 10 10 10 10 9 9 7 6 5 4 4 5 5 6
5 3 3 1 6 8 10 13 14 16 17 19 17 15 11 11 11 10 9 9 8 8 7 5 2 4 10 14 16 17 15 14 13 12 13 12 12 13 13 14 13 11 9 7 7 6 6 7 8
1 4 2 4 10 11 14 13 7 10 16 14 15 15 14 14 13 12 11 10 10 10 10 10 8 6 4 2 8 12 12 13 14 12 13 14 14 14 15 16 17 14 11 10 9 9 9 9 10
5 6 6 10 11 11 10 13 16 10 11 10 11 12 12 13 12 11 10 9 9 9 9 9 9 9 8 5 1 3 4 7 10 12 12 13 13 11 11 11 14 13 13 11 12 11 11 12 12
8 9 9 10 10 11 10 8 11 14 8 7 7 8 10 10 9 9 8 7 6 7 7 8 8 5 6 6 5 2 0 2 3 7 9 10 6 6 7 7 12 13 12 11 11 10 14 15 15
9 8 12 14 17 17 17 15 12 10 6 4 5 7 8 8 7 6 6 6 5 5 5 5 5 6 4 3 3 3 2 1 2 3 5 7 5 5 4 4 6 11 13 11 7 9 9 9 8
9 11 10 11 11 11 15 12 8 7 3 3 5 6 7 7 8 8 8 8 8 7 7 5 5 4 4 4 3 2 3 3 3 3 5 6 6 5 3 4 4 5 7 10 8 7 6 4 3
9 9 9 8 10 11 9 10 7 4 3 5 5 6 7 8 8 9 11 10 11 10 9 8 7 4 5 5 4 3 3 4 3 4 6 5 5 6 5 5 5 4 6 7 7 7 5 5 4
9 9 6 3 3 5 2 6 6 3 4 5 6 7 7 8 10 11 12 12 12 11 11 10 9 7 6 5 4 3 4 4 4 5 5 6 7 8 5 5 5 5 4 3 3 3 3 3 4
7 5 4 4 0 1 6 7 5 3 5 6 8 9 10 11 13 13 13 13 12 11 11 12 10 9 7 6 5 5 4 4 4 5 5 7 8 9 5 5 5 5 2 3 4 3 2 2 3
5 7 5 7 4 3 7 7 5 4 5 7 8 9 11 12 13 13 13 12 11 11 11 12 11 9 8 5 5 5 5 4 3 4 5 7 7 8 5 4 5 4 3 3 3 3 2 2 2
11 12 10 6 5 3 4 4 5 4 6 9 10 10 11 12 13 13 12 12 12 12 12 13 12 10 8 5 5 5 5 4 4 4 6 6 7 8 6 5 5 5 4 4 4 3 3 2 1
10 12 9 6 5 2 2 4 6 4 6 7 9 11 11 12 12 12 13 14 13 13 13 14 13 11 10 7 7 6 6 5 5 4 4 7 8 7 7 7 6 6 5 5 5 4 2 2 2
11 7 9 6 1 3 4 5 8 6 6 7 9 10 11 12 13 13 13 12 13 13 14 14 13 12 10 9 7 7 6 6 5 5 5 5 6 6 6 8 7 7 7 7 7 6 6 6 4
8 8 6 6 6 5 7 3 10 7 6 7 9 9 10 11 11 11 12 13 13 13 13 13 12 12 11 10 7 8 6 6 7 6 5 5 5 5 6 7 8 8 8 9 9 9 7 8 7
6 7 7 8 8 10 7 4 7 6 5 7 8 9 9 10 10 10 11 11 12 12 11 11 11 10 10 10 8 7 6 6 6 6 6 6 5 4 4 5 6 8 8 9 9 8 9 8 9
5 7 9 8 8 8 5 3 6 4 5 6 7 8 9 9 10 10 10 9 9 10 10 10 10 11 11 11 10 8 8 8 8 7 6 5 4 3 3 3 4 5 6 8 8 9 10 10 10
5 7 5 5 6 2 3 1 6 6 5 5 6 7 7 7 8 8 9 9 9 10 10 10 10 10 10 10 10 10 9 9 8 7 7 6 4 3 4 3 2 2 3 5 6 7 8 9 9
6 6 6 6 4 2 4 3 7 6 4 3 5 6 7 7 7 7 7 7 8 8 8 9 10 9 9 9 9 9 9 7 6 7 6 6 5 5 5 4 3 3 2 1 2 3 5 5 7
7 6 6 6 11 6 5 8 7 6 3 3 4 5 7 7 7 7 6 6 6 6 6 6 8 8 9 8 8 8 9 8 8 8 7 6 6 5 6 5 5 5 5 4 3 1 1 2 3
3 6 6 5 6 5 1 4 5 5 1 3 4 4 5 6 7 7 6 6 5 5 5 6 6 7 7 8 7 6 7 7 7 7 8 7 6 6 6 6 4 4 5 5 4 3 3 2 1
4 3 4 6 4 3 4 3 5 4 2 2 3 3 4 5 6 6 5 5 5 5 5 6 7 7 7 8 7 7 7 7 7 8 8 8 8 8 7 7 7 7 6 5 4 4 3 3 3
2 4 6 5 7 3 2 3 6 4 2 1 1 1 2 3 4 4 5 5 5 6 5 5 6 7 7 7 7 7 7 8 8 8 9 9 9 9 9 9 9 10 9 7 6 4 4 3 3
Wind_Direction
239 231 230 249 256 78 62 55 50 35 41 50 42 61 68 58 57 89 145 127 122 124 130 137 137 135 131 127 124 122 121 121 121 119 117 115 111 106 103 100 93 86 85 87 88 103 104 101 90
253 224 229 251 345 77 64 58 56 42 46 64 56 59 67 64 81 104 121 113 123 127 139 140 140 140 138 137 135 132 130 128 127 126 123 121 119 114 109 108 103 98 97 101 106 119 126 121 106
255 238 243 231 70 75 74 60 58 55 50 69 76 61 52 60 85 104 117 123 122 127 131 132 144 145 146 146 143 142 142 140 140 138 136 132 130 126 118 113 111 105 103 109 118 130 134 137 128
253 237 247 84 78 75 73 70 63 58 58 60 68 68 59 57 86 114 134 127 126 128 127 138 148 153 156 156 158 159 160 158 159 157 154 150 149 145 140 132 122 115 113 117 126 139 145 145 146
243 270 71 80 78 67 57 59 63 58 60 77 80 82 76 75 96 123 133 130 135 134 133 144 153 159 165 171 175 178 180 178 179 178 176 174 173 169 166 160 148 136 130 128 138 150 155 155 154
267 274 86 97 86 75 66 61 61 57 53 67 89 88 80 82 96 111 114 123 128 132 137 146 160 167 174 182 189 193 194 194 194 193 194 193 193 192 190 182 172 161 152 149 156 167 170 173 173
281 113 114 111 95 72 70 72 69 59 47 42 79 90 79 67 67 82 93 99 115 131 142 154 166 175 183 190 195 201 203 204 203 203 206 208 208 205 201 196 189 179 173 172 174 179 183 185 189
289 352 92 109 109 81 71 73 69 64 54 41 45 68 72 65 65 68 69 63 67 76 120 158 170 177 183 193 199 202 205 208 209 210 212 214 216 215 212 205 199 192 188 188 189 193 196 198 200
279 53 71 144 120 96 80 81 77 67 64 57 53 55 49 47 51 52 49 42 39 32 22 40 99 167 189 191 195 198 205 209 210 213 215 214 219 217 214 216 196 193 195 197 200 205 206 209 211
327 84 114 82 98 93 65 46 56 69 52 43 39 39 39 40 45 47 42 34 27 21 14 14 10 11 349 265 179 189 200 203 209 215 211 213 228 228 217 211 190 193 198 203 209 214 217 222 216
52 88 84 79 97 109 92 55 36 84 54 36 30 30 35 37 36 36 35 30 20 17 14 3 3 2 358 353 14 182 194 196 209 219 213 216 236 249 222 187 185 193 199 207 210 213 223 223 219
68 55 72 66 67 77 79 80 61 59 63 49 46 38 41 39 35 29 23 21 12 14 8 1 356 348 348 350 351 342 192 194 217 220 218 212 223 243 244 204 189 191 197 207 198 209 219 224 218
106 91 84 86 84 86 87 85 81 68 66 56 53 48 43 42 33 29 22 14 7 7 4 1 347 342 335 336 326 327 331 257 229 240 236 215 206 224 243 246 211 200 197 199 203 212 225 219 211
128 130 125 116 106 98 94 82 73 59 48 55 51 48 32 30 25 17 16 5 355 356 351 353 339 331 324 322 309 285 290 291 261 222 229 235 213 211 218 255 255 236 213 193 196 216 240 208 237
138 147 145 140 136 141 119 76 66 39 18 34 17 45 29 19 15 18 9 360 353 349 342 338 322 324 322 319 313 304 273 255 249 242 239 231 222 216 205 223 246 253 245 220 207 220 224 186 203
191 191 161 118 158 170 236 88 70 19 11 26 5 21 23 15 14 17 6 357 352 345 338 327 321 324 315 305 292 281 274 255 236 237 240 243 235 226 204 206 225 236 244 252 228 235 224 186 187
223 253 157 156 7 124 84 96 83 41 11 17 15 9 13 10 12 14 3 355 349 342 335 327 326 320 309 298 281 268 267 259 243 231 225 232 241 240 219 205 211 233 229 233 242 216 218 205 198
311 286 246 161 113 85 99 117 114 59 24 13 13 15 13 9 8 9 360 354 350 345 338 329 323 313 311 309 299 287 275 266 254 241 230 222 228 242 241 217 213 211 220 241 262 240 219 211 211
316 303 302 107 105 56 101 121 109 70 41 24 13 15 14 8 5 6 360 0 355 350 341 331 327 327 325 321 311 305 299 292 277 259 251 234 226 229 232 228 212 206 205 211 227 246 246 243 253
298 296 302 116 98 11 193 167 122 91 62 42 20 12 13 4 1 2 1 2 355 350 343 338 339 336 334 326 318 304 298 289 275 269 263 249 235 227 230 220 213 200 198 204 210 213 217 246 249
307 331 340 345 66 239 240 195 149 132 80 53 34 19 13 4 1 359 360 1 354 352 346 341 339 335 333 334 330 320 315 304 293 286 274 261 251 231 224 223 214 204 197 202 203 203 202 213 228
330 29 337 306 282 247 203 239 150 140 86 48 32 21 13 9 5 4 4 360 356 353 348 344 345 344 343 337 329 323 312 306 301 303 296 285 267 254 231 224 217 211 204 201 203 202 207 203 213
337 332 296 277 267 273 232 238 139 133 56 31 26 20 19 13 9 11 10 2 359 357 353 351 355 354 351 347 343 333 323 311 306 308 307 305 289 274 257 238 224 214 210 206 204 201 205 211 209
295 275 254 248 257 258 233 237 118 79 38 14 20 23 21 13 11 13 11 2 1 1 359 358 3 3 358 356 354 353 345 340 339 338 330 323 310 299 295 263 241 228 219 212 208 209 206 212 214
257 287 277 227 214 217 105 144 93 90 56 17 22 24 17 17 11 9 7 2 0 3 1 1 5 5 3 2 5 3 360 354 353 348 338 333 329 329 332 322 278 244 231 221 210 209 215 215 213
315 301 314 317 325 134 181 105 112 106 99 44 46 27 11 18 13 10 7 359 357 359 357 0 3 5 5 6 7 8 8 3 358 354 350 351 352 350 356 5 16 26 17 284 215 216 221 218 218
318 330 338 302 291 286 133 119 134 141 131 81 52 27 17 14 13 8 7 357 353 351 356 1 4 9 6 5 7 8 8 5 4 3 4 4 359 360 9 17 28 35 37 39 50 79 215 207 222
311 322 309 293 333 335 27 115 128 141 92 62 62 34 20 10 6 1 356 355 349 350 358 6 15 16 4 3 4 5 0 360 3 4 2 0 0 6 14 15 26 39 44 44 46 55 46 63 81
327 287 305 291 270 314 336 64 84 94 82 32 48 39 14 4 354 346 347 353 356 358 13 14 16 17 6 359 357 5 3 359 12 9 4 8 7 12 27 22 26 34 41 46 49 50 54 63 59
339 343 331 324 341 328 291 109 98 103 113 141 50 12 359 339 334 334 349 351 4 1 10 19 18 13 7 2 1 12 14 11 18 17 11 17 16 14 24 29 30 32 29 24 27 34 50 60 63
Height
1509 1509 1511 1514 1515 1515 1519 1513 1507 1505 1503 1504 1504 1504 1510 1516 1522 1533 1534 1534 1535 1536 1538 1540 1542 1544 1545 1547 1548 1549 1550 1551 1552 1553 1553 1554 1555 1556 1556 1557 1557 1558 1559 1559 1560 1560 1561 1561 1562
1509 1512 1515 1515 1517 1526 1525 1513 1510 1507 1506 1506 1507 1510 1514 1520 1525 1530 1534 1536 1537 1538 1540 1542 1543 1545 1546 1547 1549 1550 1551 1551 1552 1553 1554 1555 1555 1556 1557 1557 1557 1558 1558 1559 1560 1560 1561 1561 1562
1510 1514 1515 1514 1516 1525 1524 1513 1510 1509 1508 1508 1512 1517 1521 1525 1528 1532 1535 1538 1539 1540 1542 1543 1544 1546 1547 1548 1549 1550 1551 1552 1553 1553 1554 1555 1556 1556 1557 1557 1557 1558 1558 1559 1560 1560 1561 1562 1563
1513 1515 1514 1514 1520 1517 1515 1513 1511 1511 1512 1513 1515 1522 1528 1529 1532 1534 1537 1539 1541 1542 1543 1544 1545 1546 1547 1548 1549 1550 1551 1552 1553 1553 1554 1555 1556 1556 1557 1557 1557 1558 1558 1558 1559 1560 1561 1562 1563
1514 1514 1515 1521 1520 1515 1513 1514 1514 1514 1515 1517 1522 1528 1533 1535 1536 1538 1540 1541 1542 1543 1544 1545 1546 1547 1547 1548 1549 1550 1551 1552 1552 1553 1554 1555 1555 1556 1556 1557 1557 1557 1558 1558 1559 1560 1561 1562 1563
1516 1513 1525 1530 1524 1519 1518 1518 1519 1518 1520 1521 1525 1531 1537 1540 1540 1541 1542 1544 1544 1545 1545 1545 1547 1547 1548 1549 1549 1550 1551 1551 1552 1553 1553 1554 1555 1555 1556 1556 1557 1557 1557 1558 1558 1559 1560 1561 1562
1516 1516 1524 1524 1525 1525 1520 1521 1522 1523 1525 1527 1529 1533 1539 1542 1543 1543 1544 1545 1546 1546 1546 1545 1546 1547 1548 1548 1549 1550 1550 1551 1551 1552 1553 1553 1554 1555 1555 1556 1556 1556 1557 1557 1558 1558 1559 1560 1562
1514 1515 1524 1527 1528 1528 1523 1524 1527 1529 1532 1533 1533 1538 1543 1545 1544 1545 1545 1546 1547 1547 1548 1546 1546 1546 1546 1547 1548 1549 1549 1550 1551 1551 1552 1552 1553 1554 1555 1555 1555 1556 1556 1557 1557 1558 1559 1560 1561
1515 1522 1534 1529 1525 1526 1525 1528 1532 1535 1537 1539 1541 1544 1546 1546 1545 1545 1546 1546 1547 1547 1548 1548 1547 1547 1546 1546 1546 1547 1548 1549 1549 1550 1551 1551 1552 1553 1553 1554 1554 1555 1555 1556 1556 1557 1558 1559 1560
1515 1528 1529 1521 1520 1526 1530 1533 1534 1540 1542 1545 1546 1547 1547 1546 1546 1546 1546 1546 1547 1546 1546 1546 1546 1546 1546 1546 1546 1546 1546 1547 1547 1548 1549 1550 1551 1551 1552 1552 1553 1554 1554 1555 1555 1556 1557 1558 1559
1517 1523 1523 1523 1525 1528 1533 1538 1540 1542 1548 1551 1551 1550 1549 1548 1548 1548 1548 1547 1547 1546 1545 1544 1544 1544 1544 1544 1544 1544 1545 1545 1546 1546 1547 1547 1548 1549 1551 1551 1551 1552 1553 1553 1554 1555 1556 1557 1558
1522 1524 1524 1527 1529 1531 1535 1541 1546 1549 1553 1554 1553 1552 1551 1550 1550 1549 1549 1548 1546 1545 1544 1543 1542 1542 1542 1542 1542 1542 1542 1543 1543 1544 1544 1545 1546 1546 1548 1549 1549 1550 1550 1551 1552 1553 1555 1556 1558
1526 1531 1532 1534 1536 1539 1542 1547 1550 1554 1555 1555 1554 1554 1553 1552 1552 1551 1550 1549 1547 1545 1543 1542 1540 1539 1538 1538 1538 1538 1539 1540 1540 1541 1542 1542 1543 1544 1544 1546 1547 1547 1548 1549 1551 1552 1553 1555 1558
1526 1531 1533 1536 1538 1541 1544 1549 1552 1556 1556 1555 1555 1554 1554 1553 1553 1552 1550 1549 1547 1545 1543 1541 1539 1537 1536 1535 1535 1535 1535 1535 1536 1537 1538 1539 1540 1541 1541 1542 1544 1545 1547 1548 1549 1551 1552 1555 1556
1527 1530 1533 1535 1537 1542 1543 1552 1556 1557 1556 1556 1555 1554 1554 1554 1553 1552 1551 1549 1547 1545 1542 1540 1538 1536 1534 1533 1531 1530 1530 1531 1531 1532 1533 1534 1536 1537 1538 1539 1540 1541 1543 1545 1547 1549 1551 1552 1554
1525 1529 1538 1536 1535 1538 1543 1557 1558 1558 1557 1556 1555 1554 1554 1554 1553 1552 1550 1548 1546 1543 1541 1538 1536 1534 1532 1530 1528 1527 1527 1527 1527 1527 1528 1530 1531 1533 1534 1534 1536 1538 1539 1540 1543 1545 1548 1550 1552
1525 1535 1543 1541 1537 1536 1542 1556 1558 1558 1557 1556 1556 1556 1555 1555 1553 1552 1550 1548 1545 1542 1539 1536 1533 1531 1529 1527 1525 1524 1523 1523 1523 1523 1524 1525 1527 1528 1529 1530 1532 1534 1536 1537 1538 1541 1544 1546 1549
1534 1532 1533 1536 1537 1537 1544 1552 1556 1558 1559 1558 1557 1557 1556 1556 1554 1552 1549 1547 1543 1540 1536 1533 1530 1528 1526 1524 1522 1521 1520 1519 1519 1519 1519 1520 1521 1523 1524 1526 1527 1529 1531 1532 1535 1537 1540 1543 1546
1528 1528 1529 1533 1535 1538 1543 1549 1553 1557 1559 1560 1559 1558 1558 1557 1555 1552 1549 1545 1541 1537 1534 1530 1527 1524 1522 1520 1519 1518 1516 1516 1515 1515 1515 1515 1516 1518 1519 1520 1522 1523 1525 1528 1530 1533 1536 1539 1542
1529 1530 1529 1532 1536 1538 1543 1548 1552 1557 1559 1561 1560 1560 1558 1557 1554 1551 1548 1544 1540 1536 1532 1528 1524 1521 1519 1517 1515 1514 1513 1511 1511 1510 1510 1510 1511 1511 1513 1515 1516 1518 1520 1523 1525 1528 1531 1534 1538
1530 1532 1534 1536 1537 1538 1543 1549 1552 1555 1558 1560 1560 1560 1559 1557 1554 1551 1547 1543 1539 1534 1530 1526 1521 1518 1516 1513 1511 1509 1508 1507 1507 1506 1506 1506 1506 1506 1507 1509 1511 1512 1514 1517 1520 1522 1525 1528 1532
1537 1537 1538 1538 1542 1541 1542 1554 1554 1553 1557 1559 1560 1560 1559 1557 1554 1551 1547 1543 1538 1534 1529 1524 1520 1517 1513 1510 1508 1506 1504 1503 1503 1502 1502 1501 1501 1501 1502 1503 1505 1507 1509 1511 1514 1517 1519 1523 1525
1541 1540 1539 1538 1540 1541 1537 1546 1555 1552 1558 1559 1559 1559 1558 1557 1554 1551 1547 1543 1539 1534 1529 1524 1520 1516 1512 1509 1506 1503 1502 1500 1499 1499 1498 1497 1497 1497 1497 1498 1499 1501 1503 1505 1508 1510 1513 1515 1518
1541 1540 1537 1536 1539 1547 1535 1543 1557 1555 1559 1559 1559 1559 1559 1557 1555 1552 1548 1544 1539 1534 1529 1525 1520 1516 1512 1509 1505 1503 1501 1499 1497 1496 1495 1494 1493 1493 1493 1494 1494 1496 1497 1499 1502 1504 1507 1509 1512
1538 1542 1547 1547 1553 1545 1534 1541 1558 1556 1557 1558 1559 1559 1559 1557 1555 1552 1548 1544 1539 1535 1530 1526 1521 1517 1513 1510 1506 1503 1501 1498 1496 1495 1493 1492 1491 1491 1491 1491 1491 1492 1493 1495 1497 1499 1501 1504 1507
1539 1541 1551 1556 1546 1543 1538 1543 1557 1553 1556 1557 1558 1559 1558 1557 1555 1552 1549 1545 1541 1536 1532 1528 1523 1519 1515 1512 1508 1505 1502 1499 1497 1495 1493 1492 1491 1490 1490 1489 1489 1490 1490 1491 1493 1495 1497 1499 1501
1543 1537 1536 1545 1537 1536 1535 1546 1552 1552 1554 1556 1557 1558 1558 1557 1555 1552 1549 1545 1542 1538 1534 1530 1526 1522 1518 1514 1511 1507 1504 1501 1499 1497 1495 1493 1492 1491 1490 1490 1489 1489 1489 1489 1490 1491 1493 1495 1497
1545 1545 1543 1544 1549 1551 1540 1541 1550 1552 1553 1554 1556 1558 1558 1557 1555 1552 1549 1546 1542 1539 1535 1532 1528 1524 1521 1517 1513 1510 1508 1505 1502 1500 1498 1496 1495 1493 1492 1491 1491 1490 1490 1490 1490 1490 1491 1492 1493
1545 1543 1542 1540 1539 1552 1557 1558 1547 1550 1553 1554 1556 1557 1557 1556 1554 1552 1549 1546 1543 1540 1536 1533 1529 1526 1523 1519 1517 1514 1511 1508 1506 1503 1501 1499 1497 1496 1495 1493 1493 1492 1491 1491 1490 1490 1490 1491 1492
1547 1548 1548 1552 1547 1541 1549 1559 1548 1551 1553 1554 1555 1556 1556 1555 1554 1551 1549 1546 1543 1540 1537 1534 1531 1528 1524 1521 1519 1516 1513 1511 1509 1506 1504 1502 1500 1499 1497 1496 1495 1493 1492 1492 1491 1491 1491 1491 1491